• în Republica Moldova
  • Lista ţărilor
  • Pe 7 zile
  • Temperatura apei
  • Hartă satelitară
  • Meteo pe hartă
  • Widget-uri
  • user-avatar
    Intrare

    Meteo pe oră la Hobart

    Astăzi, 28 Martie, Marţi

    Timp Temperatura Precipitaţii Vânt Presiune Umiditate
    00:00 +13°C° 0 mm 5 m/s 740 mmHg 74%
    01:00 +13°C° 0 mm 5 m/s 740 mmHg 75%
    02:00 +13°C° 0 mm 5 m/s 740 mmHg 75%
    03:00 +13°C° 0 mm 5 m/s 740 mmHg 76%
    04:00 +13°C° 0 mm 4 m/s 740 mmHg 76%
    05:00 +13°C° 0 mm 4 m/s 740 mmHg 77%
    06:00 +13°C° 0 mm 5 m/s 741 mmHg 77%
    07:00 +13°C° 0 mm 5 m/s 741 mmHg 78%
    08:00 +14°C° 0 mm 6 m/s 741 mmHg 74%
    09:00 +15°C° 0 mm 7 m/s 741 mmHg 69%
    10:00 +16°C° 0 mm 8 m/s 741 mmHg 65%
    11:00 +17°C° 0 mm 8 m/s 741 mmHg 62%
    12:00 +17°C° 0 mm 8 m/s 741 mmHg 60%
    13:00 +18°C° 0 mm 8 m/s 741 mmHg 58%
    14:00 +18°C° 0 mm 8 m/s 741 mmHg 59%
    15:00 +18°C° 0 mm 7 m/s 741 mmHg 59%
    16:00 +17°C° 0 mm 7 m/s 740 mmHg 60%
    17:00 +16°C° 0 mm 7 m/s 741 mmHg 64%
    18:00 +15°C° 0 mm 6 m/s 741 mmHg 69%
    19:00 +15°C° 0 mm 6 m/s 741 mmHg 73%
    20:00 +14°C° 0 mm 6 m/s 741 mmHg 75%
    21:00 +14°C° 0 mm 6 m/s 741 mmHg 77%
    22:00 +13°C° 0 mm 5 m/s 741 mmHg 80%
    23:00 +14°C° 0 mm 6 m/s 741 mmHg 79%

    Mâine, 29 Martie, Miercuri

    Timp Temperatura Precipitaţii Vânt Presiune Umiditate
    00:00 +14°C° 0 mm 6 m/s 740 mmHg 78%
    01:00 +14°C° 0 mm 6 m/s 740 mmHg 77%
    02:00 +15°C° 0 mm 5 m/s 740 mmHg 76%
    03:00 +15°C° 0 mm 5 m/s 740 mmHg 75%
    04:00 +15°C° 0 mm 5 m/s 739 mmHg 74%
    05:00 +16°C° 0 mm 5 m/s 739 mmHg 73%
    06:00 +16°C° 0 mm 5 m/s 739 mmHg 73%
    07:00 +16°C° 0 mm 5 m/s 739 mmHg 72%
    08:00 +17°C° 0 mm 6 m/s 738 mmHg 68%
    09:00 +19°C° 0 mm 6 m/s 738 mmHg 65%
    10:00 +20°C° 0 mm 7 m/s 738 mmHg 61%
    11:00 +20°C° 0,1 mm 7 m/s 738 mmHg 60%
    12:00 +20°C° 0,1 mm 7 m/s 737 mmHg 59%
    13:00 +21°C° 0,1 mm 7 m/s 737 mmHg 58%
    14:00 +18°C° 0,4 mm 7 m/s 737 mmHg 67%
    15:00 +16°C° 0,4 mm 7 m/s 737 mmHg 76%
    16:00 +14°C° 0,4 mm 7 m/s 737 mmHg 84%
    17:00 +11°C° 0,4 mm 6 m/s 738 mmHg 86%
    18:00 +10°C° 0,4 mm 5 m/s 739 mmHg 88%
    19:00 +10°C° 0,4 mm 4 m/s 739 mmHg 90%
    20:00 +10°C° 0,7 mm 4 m/s 740 mmHg 90%
    21:00 +10°C° 0,7 mm 4 m/s 740 mmHg 91%
    22:00 +10°C° 0,7 mm 4 m/s 741 mmHg 91%
    23:00 +10°C° 0,1 mm 4 m/s 741 mmHg 91%

    Poimâine, 30 Martie, Joi

    Timp Temperatura Precipitaţii Vânt Presiune Umiditate
    00:00 +8°C° 0,1 mm 4 m/s 742 mmHg 90%
    01:00 +8°C° 0,1 mm 5 m/s 742 mmHg 90%
    02:00 +7°C° 0 mm 5 m/s 742 mmHg 91%
    03:00 +7°C° 0 mm 5 m/s 742 mmHg 91%
    04:00 +6°C° 0 mm 5 m/s 742 mmHg 92%
    05:00 +6°C° 0 mm 5 m/s 743 mmHg 92%
    06:00 +6°C° 0 mm 4 m/s 744 mmHg 93%
    07:00 +6°C° 0 mm 4 m/s 744 mmHg 93%
    08:00 +7°C° 0 mm 4 m/s 745 mmHg 83%
    09:00 +9°C° 0 mm 5 m/s 746 mmHg 73%
    10:00 +12°C° 0 mm 5 m/s 747 mmHg 62%
    11:00 +13°C° 0,1 mm 5 m/s 747 mmHg 58%
    12:00 +14°C° 0,1 mm 5 m/s 747 mmHg 54%
    13:00 +14°C° 0,1 mm 5 m/s 747 mmHg 49%
    14:00 +14°C° 0 mm 5 m/s 747 mmHg 50%
    15:00 +14°C° 0 mm 5 m/s 748 mmHg 50%
    16:00 +13°C° 0 mm 6 m/s 748 mmHg 51%
    17:00 +12°C° 0 mm 5 m/s 748 mmHg 59%
    18:00 +9°C° 0 mm 5 m/s 749 mmHg 66%
    19:00 +7°C° 0 mm 4 m/s 750 mmHg 74%
    20:00 +6°C° 0 mm 4 m/s 750 mmHg 78%
    21:00 +6°C° 0 mm 4 m/s 751 mmHg 81%
    22:00 +5°C° 0 mm 3 m/s 751 mmHg 85%
    23:00 +5°C° 0 mm 3 m/s 751 mmHg 87%

    31 Martie, Vineri

    Timp Temperatura Precipitaţii Vânt Presiune Umiditate
    00:00 +4°C° 0 mm 3 m/s 751 mmHg 89%
    01:00 +4°C° 0 mm 3 m/s 751 mmHg 90%
    02:00 +4°C° 0 mm 3 m/s 751 mmHg 91%
    03:00 +4°C° 0 mm 3 m/s 751 mmHg 91%
    04:00 +3°C° 0 mm 3 m/s 750 mmHg 91%
    05:00 +4°C° 0 mm 3 m/s 751 mmHg 90%
    06:00 +4°C° 0 mm 3 m/s 751 mmHg 88%
    07:00 +4°C° 0 mm 3 m/s 751 mmHg 87%
    08:00 +8°C° 0 mm 3 m/s 751 mmHg 77%
    09:00 +10°C° 0 mm 3 m/s 751 mmHg 66%
    10:00 +12°C° 0 mm 3 m/s 750 mmHg 55%
    11:00 +13°C° 0 mm 3 m/s 750 mmHg 52%
    12:00 +16°C° 0 mm 3 m/s 749 mmHg 49%
    13:00 +17°C° 0 mm 3 m/s 749 mmHg 45%
    14:00 +17°C° 0 mm 3 m/s 748 mmHg 47%
    15:00 +17°C° 0 mm 3 m/s 748 mmHg 49%
    16:00 +15°C° 0 mm 4 m/s 747 mmHg 51%
    17:00 +14°C° 0 mm 4 m/s 747 mmHg 59%
    18:00 +12°C° 0 mm 3 m/s 747 mmHg 67%
    19:00 +10°C° 0 mm 3 m/s 747 mmHg 75%
    20:00 +10°C° 0 mm 4 m/s 747 mmHg 78%
    21:00 +8°C° 0 mm 4 m/s 746 mmHg 80%
    22:00 +8°C° 0 mm 5 m/s 746 mmHg 82%
    23:00 +8°C° 0 mm 5 m/s 745 mmHg 82%

    1 Aprilie, Sâmbătă

    Timp Temperatura Precipitaţii Vânt Presiune Umiditate
    00:00 +9°C° 0 mm 6 m/s 745 mmHg 82%
    01:00 +9°C° 0 mm 6 m/s 744 mmHg 83%
    02:00 +9°C° 0,4 mm 6 m/s 744 mmHg 85%
    03:00 +10°C° 0,4 mm 6 m/s 744 mmHg 86%
    04:00 +10°C° 0,4 mm 6 m/s 744 mmHg 88%
    05:00 +9°C° 0,2 mm 6 m/s 744 mmHg 89%
    06:00 +8°C° 0,2 mm 6 m/s 745 mmHg 90%
    07:00 +8°C° 0,2 mm 6 m/s 745 mmHg 91%
    08:00 +9°C° 0,1 mm 7 m/s 746 mmHg 82%
    09:00 +10°C° 0,1 mm 8 m/s 746 mmHg 72%
    10:00 +11°C° 0,1 mm 9 m/s 747 mmHg 63%
    11:00 +11°C° 0,1 mm 9 m/s 747 mmHg 60%
    12:00 +11°C° 0,1 mm 10 m/s 747 mmHg 57%
    13:00 +11°C° 0,1 mm 10 m/s 747 mmHg 54%
    14:00 +11°C° 0,1 mm 10 m/s 748 mmHg 56%
    15:00 +11°C° 0,1 mm 10 m/s 748 mmHg 58%
    16:00 +9°C° 0,1 mm 10 m/s 749 mmHg 59%
    17:00 +8°C° 0 mm 9 m/s 750 mmHg 63%
    18:00 +7°C° 0 mm 8 m/s 751 mmHg 66%
    19:00 +8°C° 0 mm 7 m/s 752 mmHg 69%
    20:00 +6°C° 0 mm 7 m/s 752 mmHg 71%
    21:00 +7°C° 0 mm 6 m/s 753 mmHg 73%
    22:00 +7°C° 0 mm 6 m/s 754 mmHg 75%
    23:00 +7°C° 0 mm 6 m/s 754 mmHg 76%

    2 Aprilie, Duminică

    Timp Temperatura Precipitaţii Vânt Presiune Umiditate
    00:00 +7°C° 0 mm 6 m/s 754 mmHg 76%
    01:00 +7°C° 0 mm 6 m/s 755 mmHg 76%
    02:00 +7°C° 0 mm 5 m/s 755 mmHg 78%
    03:00 +6°C° 0 mm 5 m/s 755 mmHg 81%
    04:00 +6°C° 0 mm 5 m/s 756 mmHg 83%
    05:00 +6°C° 0 mm 5 m/s 757 mmHg 83%
    06:00 +6°C° 0 mm 4 m/s 757 mmHg 83%
    07:00 +6°C° 0 mm 4 m/s 758 mmHg 84%
    08:00 +8°C° 0,1 mm 4 m/s 759 mmHg 75%
    09:00 +10°C° 0,1 mm 4 m/s 759 mmHg 66%
    10:00 +12°C° 0,1 mm 5 m/s 760 mmHg 57%
    11:00 +12°C° 0 mm 4 m/s 760 mmHg 56%
    12:00 +13°C° 0 mm 4 m/s 760 mmHg 54%
    13:00 +13°C° 0 mm 4 m/s 760 mmHg 52%
    14:00 +13°C° 0 mm 3 m/s 760 mmHg 53%
    15:00 +13°C° 0 mm 3 m/s 760 mmHg 54%
    16:00 +13°C° 0 mm 3 m/s 761 mmHg 56%
    17:00 +11°C° 0 mm 3 m/s 761 mmHg 65%
    18:00 +9°C° 0 mm 2 m/s 762 mmHg 75%
    19:00 +7°C° 0 mm 2 m/s 762 mmHg 84%
    20:00 +6°C° 0 mm 2 m/s 762 mmHg 86%
    21:00 +6°C° 0 mm 2 m/s 763 mmHg 88%
    22:00 +6°C° 0 mm 1 m/s 763 mmHg 90%
    23:00 +6°C° 0 mm 1 m/s 763 mmHg 91%
    Arată mai mult